AQI (77)

Current Conditions for Foresthill, CA. , Dry   
Visibility: 10 miles
Cloud ht: 7523 ft
Space WX Alerts: CONTINUED ALERT:  Electron 2MeV Integral Flux exceeded 1000pfu ( Latest Alert ) - Issue Time: 2018 Nov 16 1701 UTC

  Summary / Temperature 

Current Temperature
48.5°F
9.2°C
(24/hr Ago)
50.5°F
(Apparent temp)
42.0°F
Cool
Wind Chill Graphs
48.6°F 

48.5°F/ 9.2°C
 --- Virtual Temp: 49.4°F ---

 Temp Rate:

 24/hr Difference:

 Avg Running Temp:

 Todays High:

 Todays Low:

 Y-days High:

 Y-days Low:

 Todays WChill:

 Y-days WChill:

 Evapotranspiration:

-0.4°F/hr 

-2°F

48.9°F

51.5°F 12:00am

48.5°F 5:20am

65.5°F 1:57pm

50.2°F 7:14am

43.4°F 5:18am

44.6°F 5:38am

0.005 in

115' Above Ground

 Temperature:

 6'AGL VRS 115'AGL:

 Avg Running Temp:

 Humidity:

 Todays High:

 Todays Low:

 Y-days High:

 Y-days Low:

52.0°F 

+3.5°F

52.1°F

27% 

54.0°F 12:00am

52.0°F 3:09am

68.0°F 1:15pm

53.0°F 6:32am

Temp & Humidity Graphs

  Wind 

Wind Speed

 6.0 mph

Gusting to

 12.0 mph

Wind from ESE

103°  ESE

Light breeze

 Avg speed:

 Wind Run:

 Peak Gust:

  3.0 mph 

10.0 miles

  15.0 mph 1:29am

  Almanac  

Moon age: 9 days,2 hours,59 minutes,68%

Waxing Gibbous
68%
Illuminated
9 days in cycle

 Moonrise:

 Moonset:

 Sunrise:

 Sunset:

 Solar Noon:

2:12pm

12:52am

6:48am

4:47pm

11:49am

1min 56s less daylight tomorrow 

  Solar Radiation 

(Current Solar)
  No Sun Light
(Todays High)
 None@12:00am

Rain

 Rain Today:

 Rain Rate (/hr):

 Rain last hour:

 Rain Yesterday:

 This Month:

 Season Total:

41 Days Since Last Rain Day

0.00 in

0.000 in

0.00 in

0.00 in

0.00 in

0.92 in

Updated Time

Updated: 11/17/18  5:30am

(Updated  sec ago)

Humidity & Barometer

 Humidity:

 Wetbulb:

 Dew Point:

 Barometer:

34% 

40.1°F 

21.4°F 

30.039 inHg 

 Baro Trend:  Steady 
Northern Calif
Preparedness
Fire 
Level 

    UV Index  

(Current UV)
0.0  None
(Todays High) @ 12:00am
0.0   None

National Weather Service Forecast

Overnight

Overnight: Mostly Clear
Mostly Clear
Saturday

Saturday: Sunny
Sunny
Saturday
Night
Saturday Night: Mostly Clear
Mostly Clear
Sunday

Sunday: Sunny
Sunny
Sunday
Night
Sunday Night: Partly Cloudy
Partly Cloudy
Monday

Monday: Mostly Sunny
Mostly Sunny
Lo 46 °F Hi 65 °F ↓ Lo 48 °F Hi 64 °F Lo 48 °F Hi 64 °F

Foresthill Probe 2 Stats  
Foresthill Probe 2: is located on Thomas Street
at 3000 feet. The main Foresthill Weather site
is located on Melody ln at the 2860 foot elevation

Calm
45.2°F
7.3°C
Temp Rate:
-0.7°F
Calm
Gusting to
2.0 mph
(Humidity)
40%
Wind from SE
132°  SE
Updated: 17/11/18 - 05:25:22
 Todays High: 48.8°F 00:00
 Todays Low: 45.2°F 05:21
 Rain Today: 0.00 in
 Season Total: 0.63 in

Foresthill Wx: Monthly,Yearly, Highs and Lows 

Foresthill  
This Weather Data is coming from the main Foresthill
Weather site located on Melody ln at the 2860 foot
elevation
Not Foresthill Probe 2
Weather Data
Month
  High
Month
  Low
Year
High
Year
Low
Temp 72.9°F
11/1/18
45.9°F
11/14/18
93.9°F
8/10/18
21.9°F
2/23/18
Humidity 61%
11/2/18
10%
11/8/18
100%
1/8/18
9%
10/15/18
Heat Index 72.7°F
11/1/18
45.2°F
11/11/18
93.3°F
7/25/18
27.1°F
2/20/18
Wind Chill 72.9°F
11/1/18
39.4°F
11/11/18
93.9°F
8/10/18
9.2°F
2/23/18
Wind Gust 34 mph
11/8/18
0 mph
11/1/18
43 mph
3/1/18
0 mph
1/1/18
Barometer 30.48 in
11/13/18
29.91 in
11/5/18
30.55 in
1/27/18
29.60 in
6/16/18
ET 0.14 in
11/8/18
0.00 in
11/1/18
0.25 in
6/24/18
0.00 in
1/1/18
Dew Point 47.2°F
11/1/18
0.7°F
11/8/18
66.9°F
7/24/18
0.7°F
11/8/18
Pacific Satellite US Radar Satellite Imagery Sacramento,CA.  (click to enlarge)
NWS Weather Forecast - Summary
Updated: Saturday, November 17, 2018 - 4:30am PST
Red Flag Warning tonight and Sunday for portions of interior northern California due to locally gusty northeast wind and low humidity
Current Interstate Highway Conditions for I-80 & US-50

[I 80: IN THE SAN FRANCISCO BAY AREA - SOLANO CO]
there is a dense fog advisory in effect at the san francisco-oakland bay bridge /in san francisco/ (san francisco,alameda co) - motorists are advised to drive with caution

[I 80: IN THE NORTHERN CALIFORNIA AREA & SIERRA NEVADA]
no traffic restrictions are reported for this area.

[US 50: IN THE SACRAMENTO VALLEY & THE LAKE TAHOE BASIN]
the eastbound & westbound connectors to northbound sr 99 /in sacramento/ (sacramento co) are closed from 11:00pm each night to 5:00am each morning wednesday thru friday & from 0001 hrs to 6:00am saturday thru 11/17/18 - due to construction - a detour is available
NWS Weather Forecast: Overnight and Saturday (Updated: Sat, 17-Nov-2018 2:33am PST)
Overnight

Overnight: Mostly Clear
Mostly Clear

Lo 46 °F
NWS forecast: Mostly clear, with a low around 46. East wind around 6 mph.
Saturday

Saturday: Sunny
Sunny

Hi 65 °F ↓
NWS forecast: Sunny. High near 65, with temperatures falling to around 56 in the afternoon. Southeast wind around 6 mph.
YR.NO 10 Day Weather forecast
Last update: 11/16/2018 @ 23:34
Next update: 11/17/2018 @ 12:00
Provided by: 22
      Temperature Precipitation Pressure Wind  
Today
11/17/2018
03:00 06:00 36°F   30.01 inHg Light breeze from east-northeast 5 mph
  06:00 12:00 34°F   30.01 inHg Light breeze from east-northeast 4 mph
  12:00 18:00 64°F   30.01 inHg Light breeze from southwest 4 mph
  18:00 00:00 50°F   30.01 inHg Light air from east-northeast 2 mph
    (Click to enlarge)
meteogram

    Forecast for next 9 days

      Temperature Precip Pressure Wind  
Sunday
11/18/2018
00:00 06:00 41°F   30.04 inHg Light breeze from east-northeast 6 mph
  06:00 12:00 39°F   30.06 inHg Light breeze from east-northeast 6 mph
  12:00 18:00 64°F   30.06 inHg Light breeze from southwest 4 mph
  18:00 00:00 50°F   30.04 inHg Light air from east-northeast 2 mph
      Temperature Precip Pressure Wind  
Monday
11/19/2018
00:00 06:00 37°F   30.07 inHg Light breeze from east-northeast 7 mph
  06:00 12:00 36°F   30.05 inHg Light breeze from east-northeast 7 mph
  12:00 18:00 66°F   30.01 inHg Light air from west-southwest 3 mph
  16:00 22:00 59°F   29.99 inHg Light air from southwest 2 mph
  22:00 04:00 39°F   30.01 inHg Light breeze from east-northeast 6 mph
      Temperature Precip Pressure Wind  
Tuesday
11/20/2018
04:00 10:00 36°F   29.97 inHg Light breeze from east-northeast 7 mph
  10:00 16:00 63°F   30.00 inHg Light air from south-southwest 3 mph
  16:00 22:00 57°F   29.95 inHg Light air from west-southwest 2 mph
  22:00 04:00 41°F   29.98 inHg Light breeze from east 6 mph
      Temperature Precip Pressure Wind  
Wednesday
11/21/2018
04:00 10:00 39°F   29.96 inHg Light breeze from east 6 mph
  10:00 16:00 59°F 0.37 in 29.93 inHg Gentle breeze from south-southeast 9 mph
  16:00 22:00 45°F 0.82 in 29.86 inHg Moderate breeze from southeast 12 mph
  22:00 04:00 43°F 0.22 in 29.93 inHg Gentle breeze from south 8 mph
      Temperature Precip Pressure Wind  
Thursday
11/22/2018
04:00 10:00 41°F 0.25 in 29.96 inHg Gentle breeze from south-southeast 8 mph
  10:00 16:00 43°F 0.35 in 30.06 inHg Gentle breeze from south-southeast 10 mph
  16:00 22:00 43°F 0.23 in 30.05 inHg Gentle breeze from south 11 mph
  22:00 04:00 41°F 0.50 in 30.05 inHg Moderate breeze from south-southeast 13 mph
      Temperature Precip Pressure Wind  
Friday
11/23/2018
04:00 10:00 41°F 0.30 in 30.05 inHg Moderate breeze from south 12 mph
  10:00 16:00 43°F 0.10 in 30.16 inHg Gentle breeze from south 9 mph
  16:00 22:00 43°F 0.07 in 30.12 inHg Light breeze from south 6 mph
  22:00 04:00 41°F   30.15 inHg Light breeze from south-southeast 6 mph
      Temperature Precip Pressure Wind  
Saturday
11/24/2018
04:00 10:00 39°F   30.13 inHg Light air from east 3 mph
  10:00 16:00 43°F   30.18 inHg Light air from south-southeast 3 mph
  16:00 22:00 45°F   30.13 inHg Light air from south-southwest 2 mph
  22:00 04:00 43°F   30.13 inHg Light air from east-northeast 2 mph
      Temperature Precip Pressure Wind  
Sunday
11/25/2018
04:00 10:00 37°F   30.11 inHg Light breeze from east-northeast 4 mph
  10:00 16:00 50°F   30.17 inHg Calm from east-northeast 0 mph
  16:00 22:00 50°F   30.13 inHg Light air from west-southwest 3 mph
  22:00 04:00 37°F   30.16 inHg Light breeze from east-northeast 4 mph
      Temperature Precip Pressure Wind  
Monday
11/26/2018
04:00 10:00 36°F   30.12 inHg Light breeze from east-northeast 7 mph
  10:00 16:00 54°F   30.17 inHg Light air from southwest 1 mph
How Close Are We To this Month's Temperature Record ?
Updated Saturday, Nov 17, 2018- 5:25:01 AM

Current Temperature: 48.5°F

November's High: Temperature Record 72.9°F - Set on Thu, Nov 1, 2018 - 2:44:45 PM
We are currently 24.4°F Less than this Month's record High

November's Low: Temperature Record 28.9°F - Set on Thu, Nov 26, 2015 - 6:22:00 AM
We are currently 19.6°F More than this Month's record Low

Weather History For Saturday, November 17, 2018


On this Day - In Weather History ...
Data courtesy of weatherforyou.com
powered by Cumulus v1.9.3 (1059)
Ambient Weather VWS v14.00
Top Contact Website Map Copyright © 2007 - 2018 Foresthillweather.com Never base important decisions on this or any weather information obtained from the Internet